Weather observations for the past three days for
Port Hope
Metric (Imperial)
Date Time (edt) Wind (kph) Vis. (km) Weather Sky Cond. Temperature (ºC) Relative Humidity Wind Chill (°C) Heat Index (°C) Pressure Precipitation (cm)
Air Dwpt 6 hour altimeter (cm) sea level (mb) 1 hr 3 hr 6 hr
Max. Min.
02 19:55 SE 19 0.00 NULL NULL 6.7 0 8.3 5.6 63% 4 76.02 1014.2
02 18:55 SE 13 0.00 NULL NULL 8.3 -1.7 50% 6 76.05 1014.6
02 17:55 E 22 0.00 NULL NULL 7.2 -0.6 58% 4 76.1 1015.0
02 16:55 E 15 0.00 NULL NULL 6.7 -1.1 58% 4 76.12 1015.6
02 15:55 NE 9 0.00 NULL NULL 6.1 -2.2 56% 4 76.17 1016.3
02 14:55 N 9 0.00 NULL NULL 6.7 -2.8 51% 5 76.23 1016.8
02 13:55 N 7 0.00 NULL NULL 6.7 -3.3 7.2 3.3 49% 6 76.25 1017.1
02 12:55 NW 7 0.00 NULL NULL 6.1 -3.3 51% 5 76.25 1017.2
02 11:55 NW 11 0.00 NULL NULL 6.1 -3.3 51% 4 76.28 1017.4
02 10:55 NW 11 0.00 NULL NULL 5 -4.4 51% 3 76.28 1017.6
02 09:55 W 15 0.00 NULL NULL 4.4 -5 51% 1 76.28 1017.6
02 08:55 W 13 0.00 NULL NULL 3.9 -3.9 57% 1 76.28 1017.7
02 07:55 W 15 0.00 NULL NULL 2.8 -1.7 3.9 2.8 73% -1 76.28 1017.6
02 06:55 NW 17 0.00 NULL NULL 2.8 -2.2 70% -1 76.25 1017.4
02 05:55 NW 15 0.00 NULL NULL 3.3 -2.8 65% 0 76.23 1017.0
02 04:55 NW 17 0.00 NULL NULL 2.8 -2.2 70% -1 76.23 1017.0
02 03:55 NW 15 G 31 0.00 NULL NULL 3.3 -3.3 62% 0 76.2 1016.6
02 02:55 W 11 0.00 NULL NULL 3.3 -3.9 60% 1 76.23 1016.8
02 01:55 NW 19 0.00 NULL NULL 3.9 -2.8 3.9 3.3 62% 0 76.23 1016.8
02 00:55 W 11 0.00 NULL NULL 3.3 -2.2 68% 1 76.23 1016.9
01 23:55 NW 17 0.00 NULL NULL 3.9 -2.8 62% 0 76.2 1016.8
01 22:55 N 7 0.00 NULL NULL 3.9 -2.8 62% 2 76.2 1016.8
01 21:55 NW 13 0.00 NULL NULL 3.3 -1.1 73% 0 76.2 1016.7
01 20:55 N 17 0.00 NULL NULL 3.3 -1.7 70% -0 76.17 1016.3
01 19:55 N 15 0.00 NULL NULL 3.3 -1.7 6.1 3.3 70% 0 76.15 1016.1
01 18:55 N 11 0.00 NULL NULL 3.3 -1.1 73% 1 76.15 1015.9
01 17:55 N 15 0.00 NULL NULL 3.3 -1.1 73% 0 76.12 1015.9
01 16:55 Vrbl 7 0.00 NULL NULL 3.3 -1.1 73% 2 76.12 1015.5
01 15:55 Vrbl 6 0.00 NULL NULL 3.3 0.6 83% 76.12 1015.7
01 14:55 N 7 0.00 NULL NULL 5.6 0 68% 4 76.07 1015.1
01 13:55 NW 11 0.00 NULL NULL 5 0.6 5.6 3.3 73% 3 76.07 1014.9
01 12:55 NW 11 0.00 NULL NULL 5 1.1 76% 3 76.07 1015.0
01 11:55 NW 13 0.00 NULL NULL 3.9 0.6 79% 1 76.1 1015.2
01 10:55 NW 15 G 28 0.00 NULL NULL 3.9 -0.6 73% 1 76.07 1015.0
01 09:55 NW 19 0.00 NULL NULL 3.9 0 76% 0 76.07 1014.8
01 08:55 NW 19 0.00 NULL NULL 3.3 -0.6 76% -1 76.05 1014.8
01 07:55 NW 11 0.00 NULL NULL 3.3 0 3.9 -0.6 79% 1 76.05 1014.7
01 06:55 Vrbl 6 0.00 NULL NULL 3.3 -0.6 76% 76.02 1014.1
01 05:55 W 7 0.00 NULL NULL -0.6 -0.6 100% -3 76.02 1014.3
01 04:55 Vrbl 9 0.00 NULL NULL 3.3 0 79% 1 76.05 1014.4
01 03:55 W 6 0.00 NULL NULL 0.6 0 96% 76.02 1014.2
01 02:55 Calm 0.00 NULL NULL 0.6 0 96% 76.02 1014.3
01 01:55 Vrbl 6 0.00 NULL NULL 1.7 0 5 1.7 89% 76.07 1014.8
01 00:55 NW 9 0.00 NULL NULL 4.4 0.6 77% 2 76.07 1014.9
30 23:55 W 6 0.00 NULL NULL 3.9 1.7 86% 76.1 1015.2
30 22:55 Vrbl 6 0.00 NULL NULL 4.4 2.2 86% 76.1 1015.2
30 21:55 Calm 0.00 NULL NULL 3.9 1.7 86% 76.1 1015.0
30 20:55 Calm 0.00 NULL NULL 3.9 2.2 89% 76.07 1014.9
30 19:55 N 7 0.00 NULL NULL 3.9 1.7 6.7 3.9 86% 2 76.07 1014.7
30 18:55 N 7 0.00 NULL NULL 4.4 1.1 79% 3 76.05 1014.5
30 17:55 N 7 0.00 NULL NULL 5 1.1 76% 4 76.05 1014.5
30 16:55 N 7 0.00 NULL NULL 5 1.1 76% 4 76.05 1014.6
30 15:55 Vrbl 9 0.00 NULL NULL 5.6 2.8 82% 4 76.07 1014.9
30 14:55 NW 9 0.00 NULL NULL 6.1 1.1 71% 4 76.07 1014.9
30 13:55 NW 6 0.00 NULL NULL 6.1 1.7 6.1 4.4 74% 76.07 1014.8
30 12:55 N 6 0.00 NULL NULL 5 1.1 76% 76.1 1015.1
30 11:55 N 7 0.00 NULL NULL 5 1.7 79% 4 76.07 1014.9
30 10:55 N 11 0.00 NULL NULL 5.6 2.2 79% 3 76.05 1014.4
30 09:55 N 9 0.00 NULL NULL 5 2.2 82% 3 76.02 1014.2
30 08:55 N 15 G 30 0.00 NULL NULL 4.4 1.7 83% 1 76 1013.8
30 07:55 N 15 G 37 0.00 NULL NULL 4.4 2.2 6.1 3.9 86% 1 75.97 1013.6
30 06:55 N 22 G 33 0.00 NULL NULL 4.4 2.2 86% 0 75.95 1013.0
30 05:55 NW 20 G 35 0.00 NULL NULL 4.4 1.7 83% 1 75.92 1012.7
30 04:55 NW 17 0.00 NULL NULL 5 1.1 76% 2 75.9 1012.6
30 03:55 NW 13 0.00 NULL NULL 5.6 1.1 73% 3 75.9 1012.4
30 02:55 NW 17 0.00 NULL NULL 5 1.1 76% 2 75.9 1012.6
30 01:55 NW 7 0.00 NULL NULL 6.1 2.2 6.1 4.4 76% 5 75.92 1012.8
30 00:55 NW 13 0.00 NULL NULL 5.6 2.2 79% 3 75.95 1013.1
29 23:55 NW 17 0.00 NULL NULL 5.6 1.7 76% 3 75.95 1013.2
29 22:55 NW 11 0.00 NULL NULL 5.6 1.1 73% 3 75.95 1013.2
29 21:55 Vrbl 7 0.00 NULL NULL 5 1.1 76% 4 75.95 1013.0
29 20:55 NW 6 0.00 NULL NULL 4.4 1.1 79% 75.92 1012.7
Date Time (edt) Wind (kph) Vis. (km) Weather Sky Cond. Air Dwpt Max. Min. Relative Humidity Wind Chill (°C) Heat Index (°C) altimeter (cm) sea level (mb) 1 hr 3 hr 6 hr
6 hour
Temperature (ºC) Pressure Precipitation (cm)